CW1852 Weather Reports


Display with metric or nautical units.
time (UTC)temp
F
wind
direction
speed
MPH
gust
MPH
rain 1hr
in
rain 24hr
in
rain mn
in
humidity
%
barometer
mb
20260505124225 54 201 7.0 16.0 0.00 0.00 0.00 81 1007.9
20260505123202 54 201 8.0 17.0 0.00 0.00 0.00 81 1007.9
20260505122203 53 212 6.0 16.0 0.00 0.00 0.00 81 1008.0
20260505121202 53 228 4.0 15.0 0.00 0.00 0.00 82 1008.1
20260505120203 52 204 7.0 16.0 0.00 0.00 0.00 83 1008.3
20260505115202 51 224 4.0 15.0 0.00 0.00 0.00 85 1008.2
20260505114203 51 208 5.0 12.0 0.00 0.00 0.00 85 1008.3
20260505113203 50 200 5.0 13.0 0.00 0.00 0.00 86 1008.3
20260505112203 50 208 5.0 15.0 0.00 0.00 0.00 87 1008.4
20260505111203 49 206 5.0 11.0 0.00 0.00 0.00 88 1008.3
20260505110202 48 207 3.0 13.0 0.00 0.00 0.00 88 1008.2
20260505102203 48 214 4.0 8.0 0.00 0.00 0.00 89 1007.9
20260505101203 47 210 4.0 10.0 0.00 0.00 0.00 89 1007.9
20260505100245 47 239 3.0 10.0 0.00 0.00 0.00 90 1007.9
20260505095202 46 247 2.0 9.0 0.00 0.00 0.00 90 1007.9
20260505094203 46 256 4.0 9.0 0.00 0.00 0.00 90 1007.9
20260505093224 46 231 3.0 9.0 0.00 0.00 0.00 89 1007.9
20260505092203 46 230 3.0 9.0 0.00 0.00 0.00 89 1007.8
20260505091203 46 257 5.0 8.0 0.00 0.00 0.00 89 1007.8
20260505090203 47 243 3.0 10.0 0.00 0.00 0.00 89 1007.9
20260505085203 47 230 3.0 7.0 0.00 0.00 0.00 88 1008.0
20260505084202 47 208 3.0 8.0 0.00 0.00 0.00 88 1008.0
20260505083203 47 205 3.0 7.0 0.00 0.00 0.00 87 1008.0
20260505082202 47 208 3.0 9.0 0.00 0.00 0.00 87 1008.0
20260505081203 47 244 4.0 9.0 0.00 0.00 0.00 87 1008.0
20260505080203 47 206 2.0 6.0 0.00 0.00 0.00 87 1008.0
20260505075203 48 256 3.0 8.0 0.00 0.00 0.00 87 1008.0
20260505074203 48 237 4.0 13.0 0.00 0.00 0.00 86 1007.9
20260505073203 47 252 3.0 9.0 0.00 0.00 0.00 86 1007.9
20260505072203 47 231 4.0 10.0 0.00 0.00 0.00 86 1007.8
20260505071202 48 231 2.0 11.0 0.00 0.00 0.00 85 1007.8
20260505070203 48 201 4.0 14.0 0.00 0.00 0.00 85 1007.8
20260505065203 48 224 3.0 8.0 0.00 0.00 0.00 84 1007.7
20260505064203 48 248 3.0 16.0 0.00 0.00 0.00 83 1007.8
20260505063203 49 205 4.0 10.0 0.00 0.00 0.00 83 1007.8
20260505062203 49 218 4.0 10.0 0.00 0.00 0.00 83 1007.7
20260505061203 49 231 6.0 10.0 0.00 0.00 0.00 83 1007.7
20260505060204 49 207 3.0 11.0 0.00 0.00 0.00 82 1007.8
20260505055202 49 209 3.0 11.0 0.00 0.00 0.00 82 1007.8
20260505054204 49 224 5.0 11.0 0.00 0.00 0.00 81 1007.8
20260505053203 49 211 3.0 10.0 0.00 0.00 0.00 81 1007.8
20260505052202 50 211 6.0 12.0 0.00 0.00 0.00 80 1007.7
20260505051203 49 227 5.0 11.0 0.00 0.00 0.00 80 1007.7
20260505050202 50 237 6.0 10.0 0.00 0.00 0.00 80 1007.6
20260505041202 51 209 3.0 10.0 0.00 0.00 0.00 77 1007.2
20260505040203 51 227 4.0 11.0 0.00 0.00 0.00 76 1007.3
20260505035223 52 197 4.0 15.0 0.00 0.00 0.00 76 1007.1
20260505034203 51 221 6.0 13.0 0.00 0.00 0.00 77 1007.0
20260505033203 51 233 5.0 14.0 0.00 0.00 0.00 77 1007.0
20260505032203 51 217 6.0 12.0 0.00 0.00 0.00 77 1006.9
20260505031224 52 209 3.0 12.0 0.00 0.00 0.00 76 1007.0
20260505030203 52 208 5.0 12.0 0.00 0.00 0.00 76 1006.9
20260505025203 52 248 5.0 12.0 0.00 0.00 0.00 76 1007.0
20260505024202 52 236 4.0 11.0 0.00 0.00 0.00 76 1006.9
20260505023225 52 221 5.0 13.0 0.00 0.00 0.00 76 1006.8
20260505022203 51 252 6.0 13.0 0.00 0.00 0.00 77 1006.7
20260505021202 51 242 6.0 15.0 0.00 0.00 0.00 78 1006.7
20260505020245 51 240 5.0 14.0 0.00 0.00 0.00 79 1006.7
20260505015203 50 230 5.0 15.0 0.00 0.00 0.00 79 1006.6
20260505014202 51 237 5.0 14.0 0.00 0.00 0.00 79 1006.6
20260505013203 50 238 6.0 15.0 0.00 0.00 0.00 80 1006.4
20260505012203 50 231 4.0 14.0 0.00 0.00 0.00 79 1006.3
20260505011203 50 239 7.0 13.0 0.00 0.00 0.00 80 1006.2
20260505010203 50 244 8.0 17.0 0.00 0.00 0.00 79 1006.1
20260505005224 50 241 5.0 15.0 0.00 0.00 0.00 79 1006.1
20260505004225 50 238 6.0 12.0 0.00 0.00 0.00 78 1005.9
20260505003203 50 238 5.0 10.0 0.00 0.00 0.00 78 1005.7
20260505002203 49 232 4.0 9.0 0.00 0.00 0.00 79 1005.7
20260505001203 49 256 3.0 9.0 0.00 0.00 0.00 78 1005.6
20260505000204 50 211 2.0 11.0 0.00 0.00 0.00 77 1005.6
20260504235204 50 268 2.0 12.0 0.00 0.00 0.00 76 1005.5
20260504234203 50 193 3.0 8.0 0.00 0.00 0.00 75 1005.2
20260504233203 51 182 2.0 7.0 0.00 0.00 0.00 74 1005.2
20260504232203 51 203 2.0 7.0 0.00 0.00 0.00 72 1005.0
20260504231203 52 194 4.0 8.0 0.00 0.00 0.00 72 1005.0
20260504230202 52 191 3.0 6.0 0.00 0.00 0.00 70 1004.9
20260504225203 53 196 3.0 6.0 0.00 0.00 0.00 69 1004.7
20260504224202 54 193 1.0 6.0 0.00 0.00 0.00 67 1004.7
20260504223203 55 236 2.0 6.0 0.00 0.00 0.00 66 1004.7
20260504222203 55 199 2.0 9.0 0.00 0.00 0.00 64 1004.6
20260504221223 57 192 4.0 8.0 0.00 0.00 0.00 61 1004.6
20260504220204 58 266 3.0 6.0 0.00 0.00 0.00 60 1004.7
20260504215224 59 188 3.0 8.0 0.00 0.00 0.00 58 1004.6
20260504214203 59 177 2.0 10.0 0.00 0.00 0.00 60 1004.5
20260504212223 62 171 2.0 6.0 0.00 0.00 0.00 61 1004.5
20260504211203 61 198 2.0 5.0 0.00 0.00 0.00 61 1004.5
20260504210204 61 209 3.0 5.0 0.00 0.00 0.00 58 1004.5
20260504205202 62 203 2.0 4.0 0.00 0.00 0.00 59 1004.5
20260504204224 62 202 2.0 5.0 0.00 0.00 0.00 59 1004.4
20260504203224 61 198 2.0 7.0 0.00 0.00 0.00 59 1004.3
20260504202202 61 193 2.0 6.0 0.00 0.00 0.00 60 1004.5
20260504201203 61 193 2.0 7.0 0.00 0.00 0.00 60 1004.5
20260504200202 60 209 3.0 7.0 0.00 0.00 0.00 60 1004.4
20260504195203 60 203 3.0 8.0 0.00 0.00 0.00 60 1004.4
20260504194203 60 184 3.0 9.0 0.00 0.00 0.00 61 1004.5
20260504193203 59 218 3.0 10.0 0.00 0.00 0.00 61 1004.7
20260504192203 59 221 4.0 8.0 0.00 0.00 0.00 63 1004.7
20260504191202 55 251 5.0 11.0 0.00 0.00 0.00 69 1004.9
20260504190224 54 235 4.0 10.0 0.00 0.00 0.00 68 1004.9
20260504185202 55 224 5.0 14.0 0.00 0.00 0.00 66 1004.8
20260504184203 56 210 2.0 13.0 0.00 0.00 0.00 63 1004.7
20260504183224 57 261 4.0 12.0 0.00 0.00 0.00 63 1004.8
20260504182202 56 253 5.0 9.0 0.00 0.00 0.00 65 1004.7
20260504181203 54 229 4.0 11.0 0.00 0.00 0.00 69 1004.9
20260504180202 52 239 4.0 10.0 0.00 0.00 0.00 70 1005.0
20260504175203 53 219 3.0 13.0 0.00 0.01 0.00 69 1004.7
20260504174203 55 218 5.0 14.0 0.00 0.01 0.00 65 1004.7
20260504173202 58 205 8.0 15.0 0.00 0.01 0.00 59 1004.6
20260504172203 61 205 7.0 16.0 0.00 0.01 0.00 57 1004.6
20260504171226 61 216 5.0 16.0 0.00 0.01 0.00 54 1004.5
20260504170202 60 230 6.0 13.0 0.00 0.01 0.00 56 1004.5
20260504160203 56 212 8.0 18.0 0.00 0.01 0.00 63 1005.1
20260504150203 58 216 4.0 9.0 0.00 0.04 0.00 60 1005.6
20260504141203 54 200 5.0 11.0 0.00 0.05 0.00 68 1006.5
20260504140203 54 195 4.0 9.0 0.00 0.05 0.00 71 1006.6
20260504130225 51 243 4.0 9.0 0.00 0.05 0.00 68 1007.2